| time (UTC) | temp F | wind direction | speed MPH | gust MPH | rain 1hr in | rain 24hr in | rain mn in | humidity % | barometer mb |
| 20260506062331 | 64 | 4 | 5.0 | 8.0 | 0.00 | 0.00 | 0.00 | 72 | 1010.1 |
| 20260506061631 | 64 | 350 | 5.0 | 8.0 | 0.00 | 0.00 | 0.00 | 72 | 1010.4 |
| 20260506060933 | 64 | 8 | 5.0 | 8.0 | 0.00 | 0.00 | 0.00 | 72 | 1010.1 |
| 20260506060231 | 64 | 0 | 5.0 | 8.0 | 0.00 | 0.00 | 0.00 | 72 | 1010.4 |
| 20260506051331 | 67 | 1 | 8.0 | 10.0 | 0.00 | 0.00 | 0.00 | 72 | 1009.7 |
| 20260506050631 | 67 | 0 | 5.0 | 10.0 | 0.00 | 0.00 | 0.00 | 72 | 1010.1 |
| 20260506044531 | 68 | 10 | 5.0 | 10.0 | 0.00 | 0.00 | 0.23 | 71 | 1010.1 |
| 20260506043831 | 69 | 342 | 5.0 | 10.0 | 0.00 | 0.00 | 0.23 | 71 | 1010.1 |
| 20260506043131 | 69 | 11 | 5.0 | 10.0 | 0.00 | 0.00 | 0.23 | 71 | 1010.1 |
| 20260506042431 | 70 | 17 | 5.0 | 8.0 | 0.00 | 0.00 | 0.23 | 71 | 1009.4 |
| 20260506041731 | 70 | 14 | 8.0 | 8.0 | 0.00 | 0.00 | 0.23 | 72 | 1009.7 |
| 20260506041031 | 70 | 9 | 2.0 | 8.0 | 0.00 | 0.00 | 0.23 | 71 | 1009.4 |
| 20260506035632 | 71 | 2 | 5.0 | 8.0 | 0.00 | 0.00 | 0.23 | 71 | 1009.4 |
| 20260506034930 | 71 | 357 | 5.0 | 8.0 | 0.00 | 0.00 | 0.23 | 71 | 1009.4 |
| 20260506034231 | 72 | 1 | 5.0 | 8.0 | 0.00 | 0.00 | 0.23 | 72 | 1009.1 |
| 20260506033533 | 72 | 356 | 5.0 | 8.0 | 0.00 | 0.00 | 0.23 | 72 | 1008.7 |
| 20260506032831 | 72 | 29 | 8.0 | 8.0 | 0.00 | 0.00 | 0.23 | 71 | 1008.7 |
| 20260506031431 | 73 | 12 | 8.0 | 8.0 | 0.00 | 0.00 | 0.23 | 70 | 1008.7 |
| 20260506030731 | 73 | 8 | 5.0 | 8.0 | 0.00 | 0.00 | 0.23 | 70 | 1008.7 |
| 20260506030031 | 73 | 341 | 5.0 | 6.0 | 0.00 | 0.00 | 0.23 | 70 | 1008.7 |
| 20260506025331 | 73 | 349 | 2.0 | 6.0 | 0.00 | 0.00 | 0.23 | 71 | 1008.4 |
| 20260506024631 | 73 | 4 | 2.0 | 6.0 | 0.00 | 0.00 | 0.23 | 71 | 1008.0 |
| 20260506023931 | 73 | 353 | 8.0 | 6.0 | 0.00 | 0.00 | 0.23 | 71 | 1008.0 |
| 20260506023230 | 73 | 0 | 5.0 | 6.0 | 0.00 | 0.00 | 0.23 | 72 | 1007.4 |
| 20260506022531 | 73 | 3 | 2.0 | 6.0 | 0.00 | 0.00 | 0.23 | 72 | 1007.4 |
| 20260506021831 | 73 | 8 | 0.0 | 6.0 | 0.00 | 0.00 | 0.23 | 73 | 1007.0 |
| 20260506021130 | 73 | 8 | 0.0 | 6.0 | 0.00 | 0.00 | 0.23 | 73 | 1007.0 |
| 20260506020430 | 73 | 4 | 5.0 | 6.0 | 0.00 | 0.00 | 0.23 | 74 | 1007.0 |
| 20260506015735 | 73 | 3 | 0.0 | 4.0 | 0.00 | 0.00 | 0.23 | 76 | 1007.0 |
| 20260506015030 | 73 | 6 | 2.0 | 4.0 | 0.00 | 0.00 | 0.23 | 76 | 1007.0 |
| 20260506014331 | 73 | 8 | 5.0 | 4.0 | 0.00 | 0.00 | 0.23 | 78 | 1007.0 |
| 20260506013630 | 73 | 6 | 2.0 | 4.0 | 0.00 | 0.00 | 0.23 | 79 | 1006.3 |
| 20260506012931 | 73 | 5 | 0.0 | 4.0 | 0.00 | 0.00 | 0.23 | 79 | 1006.3 |
| 20260506011530 | 73 | 4 | 0.0 | 4.0 | 0.00 | 0.00 | 0.23 | 80 | 1006.7 |
| 20260506010830 | 73 | 4 | 0.0 | 4.0 | 0.00 | 0.00 | 0.23 | 80 | 1006.3 |
| 20260506010130 | 73 | 8 | 0.0 | 4.0 | 0.00 | 0.00 | 0.23 | 79 | 1006.0 |
| 20260506005430 | 73 | 5 | 0.0 | 6.0 | 0.00 | 0.00 | 0.23 | 78 | 1005.7 |
| 20260506004030 | 74 | 8 | 0.0 | 8.0 | 0.00 | 0.00 | 0.23 | 77 | 1006.0 |
| 20260506003330 | 75 | 2 | 0.0 | 8.0 | 0.00 | 0.00 | 0.23 | 76 | 1006.0 |
| 20260506001930 | 77 | 10 | 0.0 | 12.0 | 0.00 | 0.00 | 0.22 | 71 | 1006.0 |
| 20260506000530 | 82 | 13 | 0.0 | 14.0 | 0.00 | 0.00 | 0.18 | 64 | 1006.0 |
| 20260505235831 | 84 | 5 | 2.0 | 14.0 | 0.00 | 0.00 | 0.02 | 62 | 1005.3 |
| 20260505235133 | 85 | 86 | 11.0 | 14.0 | 0.00 | 0.00 | 0.00 | 65 | 1004.7 |
| 20260505234433 | 85 | 19 | 2.0 | 14.0 | 0.00 | 0.00 | 0.00 | 64 | 1005.0 |
| 20260505232333 | 87 | 25 | 8.0 | 14.0 | 0.00 | 0.00 | 0.00 | 62 | 1005.0 |
| 20260505231633 | 87 | 352 | 8.0 | 14.0 | 0.00 | 0.00 | 0.00 | 61 | 1004.7 |
| 20260505230933 | 88 | 24 | 11.0 | 14.0 | 0.00 | 0.00 | 0.00 | 61 | 1004.7 |
| 20260505230233 | 88 | 55 | 5.0 | 10.0 | 0.00 | 0.00 | 0.00 | 60 | 1004.7 |
| 20260505225533 | 88 | 32 | 8.0 | 10.0 | 0.00 | 0.00 | 0.00 | 60 | 1004.3 |
| 20260505224833 | 89 | 0 | 8.0 | 10.0 | 0.00 | 0.00 | 0.00 | 59 | 1004.7 |
| 20260505224133 | 89 | 18 | 8.0 | 8.0 | 0.00 | 0.00 | 0.00 | 59 | 1004.3 |
| 20260505223433 | 89 | 15 | 0.0 | 8.0 | 0.00 | 0.00 | 0.00 | 57 | 1004.3 |
| 20260505222733 | 90 | 10 | 5.0 | 8.0 | 0.00 | 0.00 | 0.00 | 57 | 1004.3 |
| 20260505222033 | 90 | 5 | 5.0 | 8.0 | 0.00 | 0.00 | 0.00 | 56 | 1004.3 |
| 20260505221333 | 90 | 1 | 5.0 | 8.0 | 0.00 | 0.00 | 0.00 | 56 | 1004.3 |
| 20260505220633 | 90 | 11 | 0.0 | 8.0 | 0.00 | 0.00 | 0.00 | 55 | 1004.3 |
| 20260505215933 | 90 | 26 | 2.0 | 8.0 | 0.00 | 0.00 | 0.00 | 55 | 1004.3 |
| 20260505215233 | 91 | 20 | 8.0 | 8.0 | 0.00 | 0.00 | 0.00 | 54 | 1004.3 |
| 20260505214533 | 91 | 8 | 5.0 | 10.0 | 0.00 | 0.00 | 0.00 | 54 | 1004.3 |
| 20260505213833 | 90 | 6 | 2.0 | 10.0 | 0.00 | 0.00 | 0.00 | 54 | 1004.3 |
| 20260505213133 | 91 | 13 | 2.0 | 10.0 | 0.00 | 0.00 | 0.00 | 54 | 1004.7 |
| 20260505212433 | 92 | 46 | 5.0 | 10.0 | 0.00 | 0.00 | 0.00 | 54 | 1004.7 |
| 20260505211033 | 91 | 7 | 5.0 | 17.0 | 0.00 | 0.00 | 0.00 | 55 | 1004.7 |
| 20260505210333 | 91 | 346 | 5.0 | 17.0 | 0.00 | 0.00 | 0.00 | 55 | 1004.7 |
| 20260505205634 | 91 | 355 | 2.0 | 17.0 | 0.00 | 0.00 | 0.00 | 56 | 1005.0 |
| 20260505204933 | 91 | 31 | 5.0 | 17.0 | 0.00 | 0.00 | 0.00 | 55 | 1005.0 |
| 20260505203533 | 91 | 3 | 2.0 | 17.0 | 0.00 | 0.00 | 0.00 | 55 | 1005.0 |
| 20260505202833 | 91 | 3 | 5.0 | 17.0 | 0.00 | 0.00 | 0.00 | 57 | 1005.3 |
| 20260505202133 | 90 | 8 | 5.0 | 17.0 | 0.00 | 0.00 | 0.00 | 57 | 1005.3 |
| 20260505201433 | 90 | 27 | 5.0 | 17.0 | 0.00 | 0.00 | 0.00 | 59 | 1005.3 |
| 20260505200033 | 89 | 9 | 0.0 | 17.0 | 0.00 | 0.00 | 0.00 | 59 | 1005.7 |
| 20260505195333 | 89 | 58 | 5.0 | 17.0 | 0.00 | 0.00 | 0.00 | 60 | 1005.7 |
| 20260505194633 | 89 | 18 | 5.0 | 17.0 | 0.00 | 0.00 | 0.00 | 62 | 1005.3 |
| 20260505193933 | 88 | 69 | 5.0 | 17.0 | 0.00 | 0.00 | 0.00 | 62 | 1005.7 |
| 20260505193232 | 88 | 294 | 5.0 | 17.0 | 0.00 | 0.00 | 0.00 | 62 | 1005.7 |
| 20260505192533 | 88 | 6 | 5.0 | 17.0 | 0.00 | 0.00 | 0.00 | 63 | 1005.7 |
| 20260505191833 | 87 | 6 | 5.0 | 17.0 | 0.00 | 0.00 | 0.00 | 63 | 1005.7 |
| 20260505191132 | 87 | 8 | 5.0 | 17.0 | 0.00 | 0.00 | 0.00 | 64 | 1005.3 |
| 20260505190433 | 86 | 98 | 11.0 | 17.0 | 0.00 | 0.00 | 0.00 | 64 | 1005.7 |
| 20260505185732 | 86 | 4 | 8.0 | 14.0 | 0.00 | 0.00 | 0.00 | 65 | 1006.0 |
| 20260505185033 | 85 | 17 | 5.0 | 14.0 | 0.00 | 0.00 | 0.00 | 66 | 1006.0 |
| 20260505184333 | 84 | 12 | 2.0 | 14.0 | 0.00 | 0.00 | 0.00 | 66 | 1006.0 |
| 20260505183632 | 84 | 13 | 5.0 | 14.0 | 0.00 | 0.00 | 0.00 | 66 | 1006.0 |
| 20260505182933 | 84 | 106 | 11.0 | 14.0 | 0.00 | 0.00 | 0.00 | 66 | 1006.0 |
| 20260505182232 | 84 | 9 | 0.0 | 14.0 | 0.00 | 0.00 | 0.00 | 67 | 1006.0 |
| 20260505181532 | 84 | 16 | 5.0 | 14.0 | 0.00 | 0.00 | 0.00 | 67 | 1006.0 |
| 20260505180833 | 84 | 10 | 5.0 | 14.0 | 0.00 | 0.00 | 0.00 | 67 | 1006.0 |
| 20260505180133 | 83 | 13 | 0.0 | 14.0 | 0.00 | 0.00 | 0.00 | 67 | 1006.3 |
| 20260505175433 | 84 | 331 | 5.0 | 14.0 | 0.00 | 0.00 | 0.00 | 67 | 1006.3 |
| 20260505174732 | 84 | 332 | 14.0 | 14.0 | 0.00 | 0.00 | 0.00 | 67 | 1006.0 |
| 20260505174033 | 84 | 80 | 8.0 | 14.0 | 0.00 | 0.00 | 0.00 | 67 | 1006.3 |
| 20260505173332 | 83 | 30 | 5.0 | 14.0 | 0.00 | 0.00 | 0.00 | 68 | 1006.0 |
| 20260505172632 | 83 | 3 | 5.0 | 14.0 | 0.00 | 0.00 | 0.00 | 67 | 1006.0 |
| 20260505171932 | 83 | 24 | 2.0 | 12.0 | 0.00 | 0.00 | 0.00 | 67 | 1006.3 |
| 20260505171232 | 83 | 11 | 2.0 | 12.0 | 0.00 | 0.00 | 0.00 | 68 | 1006.3 |
| 20260505170533 | 83 | 356 | 8.0 | 12.0 | 0.00 | 0.00 | 0.00 | 68 | 1006.0 |
| 20260505165833 | 83 | 39 | 5.0 | 19.0 | 0.00 | 0.00 | 0.00 | 69 | 1006.3 |
| 20260505165133 | 82 | 10 | 5.0 | 19.0 | 0.00 | 0.00 | 0.00 | 70 | 1006.3 |
| 20260505164433 | 81 | 29 | 5.0 | 19.0 | 0.00 | 0.00 | 0.00 | 70 | 1006.3 |
| 20260505163733 | 81 | 358 | 8.0 | 19.0 | 0.00 | 0.00 | 0.00 | 70 | 1006.3 |
| 20260505163033 | 81 | 73 | 5.0 | 19.0 | 0.00 | 0.00 | 0.00 | 70 | 1006.0 |
| 20260505160932 | 81 | 358 | 8.0 | 14.0 | 0.00 | 0.00 | 0.00 | 71 | 1006.0 |
| 20260505152733 | 79 | 358 | 8.0 | 14.0 | 0.00 | 0.00 | 0.00 | 74 | 1006.0 |
| 20260505152032 | 78 | 355 | 8.0 | 14.0 | 0.00 | 0.00 | 0.00 | 75 | 1006.3 |
| 20260505151333 | 77 | 0 | 5.0 | 14.0 | 0.00 | 0.00 | 0.00 | 75 | 1006.0 |
| 20260505150634 | 77 | 74 | 8.0 | 14.0 | 0.00 | 0.00 | 0.00 | 75 | 1006.3 |
| 20260505140332 | 74 | 39 | 5.0 | 10.0 | 0.00 | 0.00 | 0.00 | 79 | 1006.3 |
| 20260505124832 | 72 | 0 | 5.0 | 17.0 | 0.00 | 0.00 | 0.00 | 80 | 1005.7 |
| 20260505124132 | 71 | 354 | 8.0 | 17.0 | 0.00 | 0.00 | 0.00 | 80 | 1005.7 |
| 20260505122733 | 71 | 13 | 2.0 | 17.0 | 0.00 | 0.00 | 0.00 | 80 | 1005.0 |
| 20260505122032 | 71 | 15 | 5.0 | 17.0 | 0.00 | 0.00 | 0.00 | 81 | 1005.0 |
| 20260505121333 | 71 | 16 | 2.0 | 17.0 | 0.00 | 0.00 | 0.00 | 80 | 1005.3 |
| 20260505120632 | 71 | 8 | 2.0 | 17.0 | 0.00 | 0.00 | 0.00 | 80 | 1005.3 |
| 20260505115232 | 71 | 340 | 8.0 | 17.0 | 0.00 | 0.00 | 0.00 | 80 | 1005.0 |
| 20260505114532 | 71 | 18 | 17.0 | 17.0 | 0.00 | 0.00 | 0.00 | 80 | 1005.0 |
| 20260505113831 | 71 | 355 | 2.0 | 17.0 | 0.00 | 0.00 | 0.00 | 80 | 1005.0 |
| 20260505113132 | 71 | 3 | 5.0 | 14.0 | 0.00 | 0.00 | 0.00 | 80 | 1005.0 |
| 20260505112432 | 71 | 26 | 5.0 | 14.0 | 0.00 | 0.00 | 0.00 | 80 | 1005.0 |
| 20260505111732 | 71 | 24 | 2.0 | 14.0 | 0.00 | 0.00 | 0.00 | 80 | 1005.0 |
| 20260505111032 | 71 | 9 | 5.0 | 14.0 | 0.00 | 0.00 | 0.00 | 80 | 1005.0 |
| 20260505110332 | 71 | 13 | 8.0 | 14.0 | 0.00 | 0.00 | 0.00 | 79 | 1005.0 |
| 20260505101432 | 71 | 52 | 5.0 | 19.0 | 0.00 | 0.00 | 0.00 | 79 | 1005.0 |
| 20260505100732 | 71 | 12 | 5.0 | 19.0 | 0.00 | 0.00 | 0.00 | 78 | 1005.3 |
| 20260505100032 | 71 | 6 | 5.0 | 19.0 | 0.00 | 0.00 | 0.00 | 78 | 1005.3 |
| 20260505095332 | 71 | 31 | 5.0 | 12.0 | 0.00 | 0.00 | 0.00 | 78 | 1005.0 |
| 20260505094632 | 71 | 8 | 2.0 | 12.0 | 0.00 | 0.00 | 0.00 | 78 | 1005.3 |
| 20260505093932 | 71 | 348 | 2.0 | 17.0 | 0.00 | 0.00 | 0.00 | 78 | 1005.3 |
| 20260505093232 | 71 | 36 | 5.0 | 17.0 | 0.00 | 0.00 | 0.00 | 78 | 1005.3 |
| 20260505091132 | 71 | 17 | 2.0 | 17.0 | 0.00 | 0.00 | 0.00 | 78 | 1005.7 |
| 20260505090432 | 71 | 40 | 5.0 | 17.0 | 0.00 | 0.00 | 0.00 | 78 | 1005.3 |
| 20260505085731 | 71 | 42 | 5.0 | 17.0 | 0.00 | 0.00 | 0.00 | 78 | 1005.3 |
| 20260505085031 | 71 | 14 | 0.0 | 17.0 | 0.00 | 0.00 | 0.00 | 78 | 1005.3 |
| 20260505084331 | 71 | 22 | 8.0 | 14.0 | 0.00 | 0.00 | 0.00 | 77 | 1005.7 |
| 20260505082931 | 71 | 34 | 5.0 | 14.0 | 0.00 | 0.00 | 0.00 | 78 | 1005.3 |
| 20260505082231 | 71 | 35 | 2.0 | 14.0 | 0.00 | 0.00 | 0.00 | 77 | 1005.7 |
| 20260505081531 | 71 | 43 | 5.0 | 14.0 | 0.00 | 0.00 | 0.00 | 77 | 1005.7 |
| 20260505080831 | 71 | 59 | 5.0 | 14.0 | 0.00 | 0.00 | 0.00 | 77 | 1005.7 |
| 20260505080132 | 71 | 24 | 2.0 | 14.0 | 0.00 | 0.00 | 0.00 | 77 | 1005.3 |
| 20260505074731 | 71 | 342 | 8.0 | 14.0 | 0.00 | 0.00 | 0.00 | 76 | 1006.0 |
| 20260505073331 | 72 | 11 | 5.0 | 10.0 | 0.00 | 0.00 | 0.00 | 75 | 1006.0 |
| 20260505072631 | 72 | 0 | 5.0 | 10.0 | 0.00 | 0.00 | 0.00 | 75 | 1006.3 |
| 20260505071932 | 72 | 6 | 5.0 | 10.0 | 0.00 | 0.00 | 0.00 | 75 | 1006.3 |
| 20260505071231 | 72 | 18 | 5.0 | 10.0 | 0.00 | 0.00 | 0.00 | 75 | 1006.3 |
| 20260505070531 | 72 | 18 | 2.0 | 10.0 | 0.00 | 0.00 | 0.00 | 74 | 1006.7 |
| 20260505065831 | 72 | 340 | 11.0 | 10.0 | 0.00 | 0.00 | 0.00 | 74 | 1006.3 |